Zurück zum Katalog

STARLINK-37000

AktivKommunikationVLEO
NORAD 68063·PAYLOAD·🇺🇸 United States

Gestartet Mar 2, 2026 von Vandenberg Space Force Base

Loading…

Nächste Überflüge (nächste 24 Stunden)

TLE

AktuellSource: CelesTrak SupGP

Epoche: Sep 14, 2026, 21:10 UTC

1 68063C 26041Z   26257.88243056  .00053615  00000+0  15840-2 0  2570
2 68063  53.1579 246.3026 0001339  91.0470 213.7099 15.34365029    15

Verfolge STARLINK-37000 in Echtzeit mit AllMySat

Download on the App Store